Wind_Speed
42 41 40 40 40 40 38 35 33 31 30 29 28 27 25 24 23 21 20 18 17 16 15 14 13 11 10 9 7 7 7 6 6 5 6 6 6 7 7 8 9 9 10 10 10 10 11 12 12
43 44 43 43 43 42 39 36 34 32 32 31 30 29 27 26 25 23 21 20 19 18 16 15 14 13 12 11 9 9 8 7 7 7 7 7 7 8 8 9 10 10 10 10 11 11 12 12 13
43 45 46 46 46 43 40 37 35 34 34 34 32 31 29 28 26 25 23 22 20 19 18 17 16 15 14 13 11 10 9 9 8 8 8 8 9 9 9 10 10 10 11 11 12 12 13 13 14
44 45 47 48 46 43 41 39 37 36 36 35 34 33 31 29 28 27 25 23 22 21 19 18 17 16 15 14 13 12 10 10 9 9 9 9 10 10 10 10 11 11 12 12 13 13 14 15 15
45 46 48 48 46 44 42 40 39 38 37 36 36 34 32 30 29 28 27 25 23 22 20 19 18 17 16 16 14 13 12 11 11 11 11 11 11 11 11 12 12 12 12 13 14 14 15 16 16
48 48 49 48 45 44 44 42 40 39 38 37 36 35 33 31 30 29 28 26 25 24 22 20 19 19 18 17 16 15 14 13 12 12 12 12 12 12 13 13 13 13 14 14 15 15 16 17 17
49 49 49 47 45 44 43 43 41 40 39 38 37 35 34 33 32 30 30 28 26 25 24 22 21 20 19 18 17 16 15 14 14 14 14 14 14 14 14 14 14 15 15 15 16 16 17 17 18
49 50 49 48 46 44 43 42 42 42 41 40 38 37 35 34 33 32 31 29 28 26 25 24 23 22 20 19 18 18 17 16 16 15 15 15 15 15 15 15 15 16 16 17 17 17 18 18 19
48 50 49 47 46 45 43 42 43 43 43 41 39 38 37 36 35 33 32 30 29 27 27 26 24 23 22 21 20 19 18 18 17 17 17 16 16 16 16 17 17 17 18 18 18 19 19 19 20
49 50 48 46 45 45 45 45 44 44 44 43 41 39 38 37 36 35 32 31 29 29 28 27 26 25 24 23 22 21 20 19 19 18 18 18 17 17 18 18 18 18 19 19 19 20 20 20 21
49 48 47 46 46 45 46 47 47 46 45 43 42 41 40 39 38 37 35 32 31 31 30 28 27 27 25 25 24 23 22 21 20 20 20 19 19 19 19 19 20 20 20 20 21 21 22 22 22
49 47 47 46 47 47 47 47 48 48 46 44 44 43 42 40 39 38 36 34 33 32 31 30 29 28 27 27 26 25 24 23 22 21 21 21 21 21 21 21 21 21 22 22 23 23 24 24 24
48 48 47 46 47 48 48 48 48 47 47 46 45 44 43 41 41 39 38 37 35 34 33 32 30 29 28 28 27 26 25 25 24 23 23 23 23 23 22 22 22 23 23 24 24 25 25 26 26
47 47 47 47 47 47 49 49 48 47 47 47 46 45 44 43 42 41 40 38 37 36 35 34 32 31 30 29 28 27 27 26 26 25 25 25 24 24 24 24 24 25 25 25 25 26 26 27 27
46 47 48 48 48 48 49 50 49 47 47 47 47 46 45 44 43 42 41 40 39 38 37 36 35 34 32 31 30 29 28 28 27 27 26 26 26 26 26 25 26 26 26 27 27 27 27 28 28
46 47 48 48 48 48 50 51 49 48 47 47 47 47 46 45 44 43 42 41 40 39 38 37 36 36 34 33 32 32 31 29 29 28 28 28 27 27 27 27 27 27 27 28 28 29 28 29 29
47 47 47 47 48 49 51 50 49 49 48 47 47 47 46 45 44 44 43 42 41 40 39 38 37 36 36 35 34 34 33 31 30 30 29 28 28 28 29 29 28 28 29 29 30 30 30 30 30
45 46 46 47 47 48 50 50 50 49 48 47 47 48 47 46 44 44 43 43 42 41 40 40 39 37 37 36 36 35 34 33 32 31 31 30 29 30 30 30 30 30 30 30 30 31 31 31 31
42 44 46 46 46 48 50 49 50 50 49 49 49 48 48 47 45 45 43 43 43 42 42 41 40 39 38 37 36 35 35 34 34 33 33 32 31 31 31 31 31 31 31 31 31 32 32 32 32
40 42 44 45 46 47 49 50 50 51 50 50 49 48 48 48 47 46 46 45 44 43 43 42 41 40 39 38 37 36 36 35 35 35 35 34 34 33 33 32 32 32 32 32 32 32 32 33 34
39 41 41 43 45 47 49 51 50 50 50 50 50 49 49 49 49 49 46 46 45 44 43 43 43 41 40 40 39 38 37 37 37 36 36 35 35 35 35 34 33 33 33 33 32 33 33 34 35
36 38 40 41 43 45 48 51 51 50 50 50 50 49 49 48 48 48 47 46 45 45 44 44 44 43 42 42 40 40 39 38 38 37 37 37 36 35 35 35 34 34 34 34 34 35 35 36 37
33 36 38 39 41 44 45 50 51 50 50 50 49 48 47 47 47 46 46 46 46 46 45 45 45 43 43 43 42 41 41 40 39 37 37 37 36 35 35 35 35 35 35 35 35 36 36 37 37
30 33 37 37 38 43 44 46 49 49 48 48 48 47 47 47 47 46 45 46 46 46 45 45 44 44 44 44 43 43 42 41 40 39 38 37 37 37 36 36 36 36 36 36 36 37 37 38 39
29 31 33 34 37 40 41 44 46 46 46 47 47 47 47 47 47 46 45 45 45 46 45 45 44 44 44 44 43 43 44 43 41 40 39 38 38 38 38 37 37 37 37 37 37 38 38 39 40
29 30 33 34 37 38 40 42 43 43 44 45 45 46 46 46 46 45 45 45 46 45 44 45 44 43 44 44 44 44 44 43 42 40 40 39 39 39 38 38 38 38 38 38 38 38 39 40 41
28 29 31 32 35 36 39 39 41 42 42 42 43 43 45 45 44 44 44 45 45 46 45 45 45 44 44 44 43 43 43 42 42 41 41 40 40 39 39 39 39 39 39 40 40 39 40 41 41
28 28 30 31 32 36 37 39 40 40 40 41 42 42 43 43 43 43 44 44 45 45 46 46 46 44 44 45 44 44 43 43 42 42 42 41 41 41 40 40 40 40 40 40 40 41 41 42 42
29 28 30 32 32 34 36 38 38 38 39 40 40 41 41 42 42 42 43 44 45 45 45 45 45 45 45 45 45 44 43 43 43 42 42 42 42 41 41 41 41 41 41 41 42 42 43 43 43
30 29 29 31 31 33 36 37 36 37 37 38 38 39 40 41 41 42 43 44 45 45 45 45 44 44 45 45 44 44 44 43 43 42 42 42 42 42 42 42 42 42 43 43 43 44 44 44 44
Wind_Direction
235 234 233 232 232 232 231 230 229 228 229 228 228 228 227 227 227 226 226 226 226 226 227 230 233 236 239 241 246 254 263 268 273 282 292 300 304 307 309 313 316 318 319 320 319 319 320 320 321
235 234 234 232 232 231 230 230 230 229 230 230 230 229 228 228 228 228 228 228 228 228 230 231 234 236 238 241 246 251 257 264 269 275 284 291 296 299 303 308 311 314 315 316 316 314 315 317 316
236 234 234 234 233 232 231 231 231 230 230 231 230 230 229 229 228 228 228 229 230 229 229 232 235 236 238 242 245 249 255 261 266 272 280 289 292 296 299 304 308 311 312 313 313 312 313 314 314
235 234 233 233 233 232 231 231 231 231 231 232 232 231 230 229 229 229 229 230 230 230 229 231 235 237 240 242 245 247 252 257 263 270 277 285 289 292 295 300 304 306 308 310 310 311 311 312 312
234 234 233 232 232 232 231 231 231 230 231 232 232 232 230 229 230 229 229 229 229 230 230 231 233 236 239 242 244 247 251 255 261 268 274 279 284 287 291 296 299 301 304 307 309 310 310 310 310
234 234 234 233 233 232 232 231 231 230 231 232 232 232 230 229 229 229 229 229 230 230 230 231 233 235 238 240 243 248 251 254 260 265 271 276 280 284 288 291 294 297 301 304 306 307 308 309 310
234 234 235 234 232 232 232 231 231 230 231 231 232 232 231 228 228 229 230 229 230 231 231 232 233 234 237 240 243 247 251 254 259 264 268 273 278 282 286 289 291 294 298 301 303 304 305 306 309
233 233 233 232 232 231 230 230 230 230 229 229 230 231 230 229 228 228 229 228 229 230 231 232 234 234 237 239 243 247 251 255 259 263 267 272 276 281 284 287 290 292 295 298 300 301 303 304 306
232 233 232 232 232 230 229 229 229 230 229 229 229 230 230 229 229 229 228 228 229 230 231 232 234 235 238 241 244 248 252 254 258 263 267 270 273 278 282 285 288 291 294 296 297 299 300 302 304
232 233 232 232 231 230 228 228 228 227 229 228 228 229 230 230 230 230 228 229 230 232 232 232 234 236 239 242 245 248 251 254 257 261 265 268 271 275 279 284 286 289 292 293 294 296 297 299 302
232 233 232 231 229 228 227 227 225 225 226 228 228 229 229 230 230 230 229 229 230 232 232 232 234 236 240 243 246 248 251 253 256 259 262 266 269 273 277 281 283 286 290 291 292 294 296 298 300
232 232 231 230 228 227 226 226 225 224 225 227 227 228 228 229 229 229 229 230 231 233 233 233 234 236 240 243 246 248 250 252 255 257 260 264 268 272 276 279 280 283 287 290 291 292 294 296 298
231 230 230 229 227 226 225 225 226 225 225 226 226 227 226 227 228 228 229 230 231 233 233 234 235 237 240 242 245 248 250 252 254 257 260 263 267 272 274 276 278 281 285 288 290 292 294 295 296
231 230 229 228 228 227 225 225 226 224 225 225 226 226 225 226 226 227 229 230 232 233 234 235 236 237 239 241 244 247 250 252 253 256 260 262 266 270 273 275 277 280 283 286 288 291 293 294 297
230 229 230 228 227 227 227 225 225 224 225 226 226 226 226 226 226 226 228 231 231 233 234 236 237 238 240 242 243 246 250 252 254 257 260 262 265 269 271 274 276 278 281 284 287 289 291 293 295
229 228 229 228 227 227 228 227 225 224 226 226 226 226 227 227 227 227 229 231 232 233 234 236 237 240 241 243 245 246 249 251 255 257 260 262 264 267 270 273 275 277 280 283 286 288 289 292 293
228 228 227 226 227 227 228 227 225 225 225 226 226 226 226 226 226 228 229 230 232 233 234 235 238 239 241 243 245 247 248 251 253 255 257 260 263 266 269 272 275 278 279 281 283 286 287 290 292
229 228 227 227 226 227 227 227 225 225 225 225 225 225 226 226 226 228 228 229 232 233 235 236 238 240 242 244 246 248 249 250 251 253 256 259 263 267 269 272 275 278 279 280 282 285 287 289 291
229 229 228 227 227 227 228 227 226 226 226 226 225 226 227 228 228 227 228 230 232 234 235 237 239 241 243 244 246 248 248 250 251 253 256 259 262 266 269 273 275 276 278 280 282 284 287 289 290
227 227 228 227 226 227 227 227 226 226 227 227 227 227 227 228 229 228 229 231 232 234 235 237 239 241 243 244 246 248 248 249 252 254 256 259 262 266 269 272 274 275 278 280 281 284 286 287 290
226 226 227 228 227 227 227 226 226 226 227 227 228 228 228 228 229 229 230 230 232 234 235 238 240 242 243 245 247 248 249 249 251 252 255 259 262 265 268 270 272 275 277 279 281 283 287 289 291
227 226 227 228 228 227 227 228 225 226 227 227 228 230 231 230 231 230 231 230 232 234 236 237 240 242 244 245 247 249 250 250 251 253 256 259 262 265 267 269 272 275 276 278 280 283 286 289 291
227 227 227 228 229 229 228 229 226 226 227 227 228 230 232 232 232 233 232 231 233 234 236 238 240 241 243 245 247 249 249 250 251 253 256 259 262 265 267 269 271 273 276 278 280 283 286 288 291
226 227 227 229 230 230 228 230 228 226 227 228 229 230 231 232 233 233 233 232 234 235 236 239 241 242 243 245 246 247 247 250 252 254 256 258 261 264 267 269 271 273 276 278 280 283 285 288 290
224 225 226 227 228 230 229 230 229 227 227 228 229 229 231 233 234 234 235 235 235 235 236 238 241 242 244 245 245 246 248 251 253 254 256 257 260 264 266 269 270 273 275 278 281 283 286 288 290
222 224 226 228 230 231 230 230 228 227 227 228 229 230 230 232 233 234 235 236 236 236 236 237 240 242 244 245 247 248 250 250 251 254 256 258 260 263 265 268 270 273 276 278 281 283 286 288 290
223 222 225 231 233 233 233 232 231 229 227 227 228 229 231 232 233 234 235 236 237 238 238 239 240 242 243 244 246 248 249 250 251 253 255 257 260 262 265 267 269 273 275 278 281 283 286 288 290
225 226 228 231 234 235 235 233 232 230 231 231 230 231 231 232 234 234 235 236 238 239 240 240 241 243 244 244 246 248 249 251 252 253 255 258 260 262 265 266 269 272 274 277 280 283 286 288 290
226 228 231 233 237 236 236 233 233 232 232 232 233 233 233 234 234 235 236 237 238 238 239 240 242 242 244 245 247 248 249 250 252 254 256 258 260 262 264 266 268 271 274 277 280 283 286 288 290
229 229 232 235 237 238 237 235 232 233 232 232 232 233 233 234 235 236 237 237 238 239 240 241 242 244 245 246 248 249 251 252 254 255 256 258 260 262 264 266 268 271 273 277 280 282 285 288 290
Height
5796 5799 5802 5805 5808 5811 5815 5821 5825 5828 5831 5834 5836 5839 5842 5845 5849 5853 5854 5854 5856 5858 5860 5862 5864 5865 5866 5867 5868 5869 5870 5870 5871 5871 5872 5872 5872 5872 5872 5872 5872 5872 5872 5871 5871 5870 5870 5869 5868
5788 5791 5795 5798 5800 5805 5811 5816 5820 5824 5826 5828 5831 5834 5837 5840 5844 5847 5849 5851 5853 5856 5858 5859 5861 5863 5864 5865 5866 5867 5868 5869 5869 5870 5870 5871 5871 5871 5871 5871 5871 5870 5870 5870 5869 5869 5868 5867 5866
5780 5783 5787 5790 5793 5800 5806 5811 5815 5818 5820 5823 5826 5829 5833 5836 5840 5843 5845 5848 5850 5853 5855 5857 5859 5861 5862 5863 5864 5865 5866 5867 5868 5868 5869 5869 5869 5869 5869 5869 5869 5869 5868 5868 5868 5867 5866 5865 5864
5772 5775 5778 5782 5787 5794 5800 5804 5808 5811 5814 5817 5821 5824 5828 5832 5835 5838 5841 5844 5847 5849 5851 5854 5856 5858 5860 5861 5862 5863 5864 5865 5866 5866 5867 5867 5867 5868 5868 5868 5867 5867 5867 5866 5866 5865 5864 5863 5862
5762 5766 5770 5774 5782 5788 5793 5797 5801 5804 5808 5811 5815 5819 5823 5827 5830 5834 5837 5840 5843 5845 5848 5851 5853 5855 5857 5858 5860 5861 5862 5863 5864 5864 5865 5865 5865 5866 5866 5866 5865 5865 5865 5864 5863 5863 5862 5861 5860
5753 5757 5762 5768 5776 5781 5785 5789 5794 5798 5801 5805 5809 5813 5817 5821 5825 5829 5832 5836 5839 5842 5844 5847 5849 5852 5854 5855 5857 5858 5859 5860 5861 5862 5863 5863 5863 5863 5863 5863 5863 5863 5862 5862 5861 5860 5859 5858 5857
5745 5749 5754 5762 5768 5774 5779 5782 5787 5791 5795 5799 5803 5807 5812 5816 5820 5823 5827 5831 5834 5837 5841 5843 5846 5848 5850 5852 5854 5855 5857 5858 5858 5859 5860 5860 5861 5861 5861 5861 5861 5860 5860 5859 5858 5857 5857 5856 5854
5735 5740 5745 5753 5760 5767 5772 5775 5779 5783 5788 5792 5797 5802 5807 5811 5815 5819 5822 5826 5830 5833 5836 5839 5842 5845 5847 5849 5851 5852 5853 5854 5856 5856 5857 5857 5858 5858 5858 5858 5858 5857 5857 5856 5855 5855 5854 5853 5852
5725 5731 5737 5746 5753 5760 5764 5768 5772 5776 5781 5786 5791 5796 5801 5805 5809 5813 5818 5822 5825 5829 5832 5835 5838 5841 5843 5845 5847 5849 5850 5851 5852 5853 5854 5854 5855 5855 5855 5855 5855 5854 5854 5853 5852 5851 5850 5849 5848
5715 5722 5731 5739 5745 5751 5756 5760 5765 5769 5774 5780 5785 5790 5795 5800 5804 5808 5813 5817 5821 5824 5827 5830 5834 5836 5839 5841 5843 5845 5846 5847 5848 5849 5850 5851 5851 5851 5851 5851 5851 5851 5850 5850 5849 5848 5847 5846 5845
5707 5715 5724 5729 5735 5741 5746 5751 5756 5761 5767 5773 5779 5784 5789 5794 5799 5803 5807 5811 5815 5819 5822 5826 5829 5832 5834 5837 5839 5841 5842 5843 5844 5845 5846 5847 5847 5847 5848 5848 5847 5847 5846 5846 5845 5844 5843 5842 5841
5700 5708 5714 5720 5725 5732 5737 5742 5748 5754 5761 5766 5772 5777 5782 5788 5793 5797 5802 5805 5809 5813 5817 5820 5824 5827 5829 5832 5834 5836 5838 5839 5840 5841 5842 5843 5843 5843 5843 5844 5843 5843 5842 5842 5841 5840 5839 5838 5837
5691 5698 5704 5710 5716 5723 5728 5734 5740 5748 5753 5759 5764 5770 5776 5781 5786 5791 5795 5799 5804 5808 5811 5815 5818 5821 5824 5827 5829 5831 5833 5834 5836 5837 5837 5838 5839 5839 5839 5839 5839 5838 5838 5837 5837 5836 5835 5834 5832
5683 5689 5695 5701 5708 5714 5720 5726 5733 5741 5746 5751 5757 5763 5769 5774 5779 5784 5789 5793 5797 5801 5805 5809 5812 5815 5818 5821 5823 5826 5827 5829 5831 5832 5833 5833 5834 5834 5834 5834 5834 5834 5833 5832 5832 5831 5830 5829 5827
5673 5679 5685 5692 5699 5705 5711 5718 5726 5734 5738 5744 5750 5756 5761 5767 5772 5777 5782 5786 5790 5795 5799 5803 5806 5809 5812 5815 5818 5820 5822 5824 5825 5827 5828 5828 5829 5829 5829 5829 5829 5828 5828 5827 5827 5826 5825 5823 5822
5663 5669 5676 5685 5691 5697 5704 5712 5720 5725 5731 5736 5742 5748 5754 5760 5765 5770 5775 5779 5784 5788 5792 5796 5800 5803 5806 5809 5811 5814 5816 5818 5819 5821 5822 5823 5823 5823 5823 5823 5823 5823 5823 5822 5821 5820 5819 5818 5817
5653 5660 5669 5678 5683 5689 5695 5704 5712 5717 5723 5729 5735 5740 5746 5752 5758 5763 5768 5773 5777 5781 5785 5789 5793 5796 5799 5802 5805 5808 5810 5812 5813 5815 5816 5816 5817 5817 5818 5818 5818 5817 5817 5817 5816 5815 5814 5812 5811
5648 5655 5662 5669 5676 5681 5687 5696 5703 5708 5714 5721 5727 5733 5739 5745 5751 5755 5760 5765 5770 5774 5778 5782 5786 5789 5792 5795 5798 5801 5803 5805 5807 5808 5809 5810 5811 5811 5811 5812 5812 5811 5811 5810 5810 5809 5807 5806 5805
5642 5648 5655 5662 5667 5673 5680 5687 5694 5700 5706 5713 5719 5725 5731 5737 5742 5747 5752 5758 5762 5767 5771 5775 5779 5782 5786 5789 5792 5794 5796 5798 5800 5801 5802 5803 5804 5805 5805 5805 5805 5805 5805 5804 5803 5802 5801 5799 5798
5633 5640 5647 5653 5659 5665 5671 5678 5685 5691 5698 5705 5711 5718 5723 5729 5734 5740 5745 5750 5755 5759 5763 5767 5771 5775 5779 5782 5784 5787 5789 5791 5793 5794 5795 5796 5797 5798 5798 5798 5799 5798 5798 5797 5797 5796 5794 5792 5791
5627 5634 5640 5646 5652 5656 5663 5669 5676 5683 5690 5696 5703 5709 5715 5720 5725 5731 5736 5741 5747 5752 5756 5760 5764 5767 5771 5774 5777 5779 5781 5783 5785 5787 5788 5790 5790 5791 5791 5792 5792 5791 5791 5790 5789 5789 5787 5786 5784
5621 5628 5633 5638 5644 5648 5654 5660 5668 5675 5681 5688 5695 5702 5708 5713 5718 5724 5728 5733 5739 5744 5748 5752 5755 5759 5763 5766 5768 5771 5774 5776 5777 5779 5781 5782 5782 5783 5784 5784 5785 5784 5784 5783 5782 5781 5780 5778 5776
5616 5621 5626 5631 5636 5640 5645 5651 5660 5666 5673 5681 5688 5694 5700 5706 5711 5716 5721 5725 5730 5735 5739 5744 5747 5751 5754 5757 5760 5763 5766 5768 5769 5771 5773 5774 5775 5776 5777 5777 5777 5777 5777 5776 5775 5774 5772 5771 5769
5610 5615 5619 5623 5627 5632 5638 5643 5651 5659 5668 5675 5681 5686 5692 5697 5702 5707 5712 5717 5721 5726 5730 5735 5738 5742 5745 5748 5751 5754 5757 5759 5761 5763 5765 5766 5767 5768 5769 5770 5770 5769 5769 5768 5767 5766 5764 5763 5761
5603 5608 5613 5616 5619 5624 5632 5635 5644 5654 5661 5667 5673 5678 5683 5688 5693 5699 5703 5708 5713 5717 5722 5726 5730 5733 5737 5740 5742 5745 5748 5751 5753 5755 5756 5758 5759 5760 5761 5761 5761 5761 5761 5760 5759 5758 5757 5755 5752
5598 5603 5608 5611 5615 5620 5625 5629 5640 5646 5652 5658 5664 5670 5675 5680 5685 5690 5695 5699 5703 5708 5712 5717 5721 5724 5728 5731 5734 5737 5739 5741 5744 5746 5748 5750 5751 5752 5752 5753 5753 5753 5753 5752 5751 5750 5748 5746 5744
5593 5597 5603 5607 5610 5614 5618 5625 5633 5639 5645 5650 5656 5661 5667 5672 5676 5681 5685 5690 5694 5699 5703 5707 5711 5715 5718 5721 5724 5727 5730 5732 5735 5737 5739 5741 5742 5743 5744 5744 5745 5745 5744 5744 5742 5741 5740 5737 5735
5589 5593 5597 5601 5604 5608 5613 5619 5626 5633 5638 5643 5648 5653 5658 5663 5667 5672 5677 5681 5685 5690 5694 5698 5702 5705 5708 5712 5715 5718 5721 5723 5726 5728 5730 5732 5733 5734 5735 5735 5736 5736 5735 5735 5734 5732 5730 5729 5726
5585 5589 5592 5595 5599 5603 5607 5615 5620 5626 5631 5635 5640 5645 5650 5654 5659 5663 5668 5672 5676 5680 5684 5688 5692 5696 5699 5702 5705 5708 5711 5714 5716 5718 5720 5722 5723 5724 5725 5726 5726 5726 5726 5725 5724 5723 5721 5719 5717
5580 5584 5587 5591 5594 5597 5601 5611 5613 5618 5623 5627 5632 5636 5641 5645 5650 5654 5659 5663 5667 5671 5675 5679 5683 5686 5689 5692 5695 5698 5701 5704 5706 5708 5710 5712 5713 5714 5716 5716 5717 5717 5716 5716 5715 5714 5712 5710 5707